Weather in Yuzhnye Koryaki

Russia / Kamchatka Krai     53°15′44″N   158°07′12″E
temp.,
°C
wind,
m/s
gust,
m/s
humid.,
%
clouds,
%
prec.,
mm/h
press.,
hPa
HPBL,
m
6 august, fri
fri600:00+5wsw54920 0.0 100352
03:00+5wsw449391 0.0 1002212
06:00+5w348583 0.0 1002394
09:00+6wsw447345 0.0 1003710
12:00+11w6105071 0.0 10021543
15:00+13wnw1011485 0.0 10021500
18:00+12w8955100 0.0 10021495
21:00+9sw5578100 0.0 1004141
7 august, sat
sat700:00+5wsw439054 0.0 100737
03:00+4wsw439791 0.0 100941
06:00+6w229495 0.0 100976
09:00+8sw117992 0.0 1011387
12:00+9ene2275100 0.0 1012647
15:00+8e2285100 0.1 1013419
18:00+8ne1289100 0.3 1015252
21:00+7nw118978 0.0 101610
8 august, sun
sun800:00+2wnw11925 0.0 101710
03:00+2nw119118 0.0 101710
06:00+3nnw118932 0.0 101810
09:00+10wnw11745 0.0 1018397
12:00+14wnw125429 0.0 10171490
15:00+15sw2250100 0.1 10161314
18:00+15wsw3354100 0.1 10151315
21:00+10sw2280100 0.1 101710
9 august, mon
mon900:00+8w2190100 0.1 101810
03:00+8w229396 0.1 101819
06:00+9w1192100 0.2 101811
09:00+10wsw228793 0.0 1018120
12:00+14se116871 0.4 1016720
15:00+15ese226556 0.8 1016990
18:00+14ese227175 1.4 1016761
21:00+9ese229096 0.1 101711
10 august, tue
tue1000:00+9ene1197100 0.7 101820
03:00+9nne2299100 1.6 1018131
06:00+8nne2297100 2.9 101835
09:00+9ese0191100 0.1 101862
12:00+12ese127894 0.2 1017389
15:00+13e227314 0.7 1016738
18:00+14e226239 0.8 1016981
21:00+8ese228559 0.0 101711